Temperature
17 17 17 17 17 17 17 17 17 17 17 17 17 17 17 17 17 17 17 18 18 18 18 18 18 18 17 17 17 17 17 17 17 17 17 17 17 16 16 16 16 16 16
17 17 17 17 17 17 17 17 17 17 17 17 17 17 17 17 17 17 17 17 18 18 18 18 18 17 17 17 17 17 17 17 17 17 17 17 17 16 16 16 16 16 16
17 17 17 17 17 17 17 17 17 17 17 17 17 17 17 17 17 17 17 17 17 17 18 18 18 17 17 17 17 17 17 17 17 17 17 17 17 17 16 16 16 16 16
17 17 17 17 17 17 17 17 17 17 17 17 17 17 17 17 17 17 17 17 17 17 17 17 17 17 17 17 17 17 17 17 17 17 17 17 17 17 16 16 16 16 16
17 17 17 17 17 17 17 17 17 17 17 17 17 17 17 17 17 17 17 17 17 17 17 17 17 17 17 17 17 17 17 17 17 17 17 17 17 16 16 16 16 16 16
16 16 16 17 17 17 17 17 17 17 17 17 17 17 17 17 17 17 17 17 17 17 17 17 17 17 17 17 17 17 17 17 17 17 17 16 16 16 16 16 16 16 16
16 16 16 16 16 16 16 16 16 17 17 17 17 17 17 17 17 17 17 17 17 17 17 17 17 17 16 17 17 17 17 17 17 16 17 16 16 16 16 16 16 16 16
16 16 16 16 16 16 16 16 16 16 16 16 17 17 18 17 17 17 17 17 17 17 17 17 16 16 16 16 16 16 16 16 16 16 16 16 16 16 16 16 16 16 15
16 16 16 16 16 16 16 16 16 16 16 16 16 17 18 18 18 17 17 16 16 17 17 16 16 16 16 16 16 16 16 16 16 16 16 16 16 16 16 16 15 15 15
16 16 16 16 16 16 16 16 16 16 16 16 16 16 16 17 17 17 17 17 16 16 16 16 16 16 16 16 16 16 16 16 16 16 16 16 15 15 15 15 15 15 15
16 16 16 16 16 16 16 16 16 16 16 16 16 16 16 16 16 17 17 16 16 16 16 16 16 16 16 16 15 15 16 16 16 16 15 15 15 15 15 15 15 15 15
16 16 16 16 16 16 16 16 16 16 16 16 16 16 16 16 16 16 16 16 16 16 16 16 16 15 15 15 15 15 15 15 15 15 15 15 15 15 15 15 15 15 15
16 16 16 16 16 16 16 16 16 16 15 15 15 15 15 15 16 16 16 16 16 16 16 16 15 15 15 15 15 15 15 15 15 15 15 15 15 14 14 14 14 14 14
16 16 16 16 16 16 16 16 15 15 15 15 15 15 15 15 15 15 15 16 16 16 16 16 15 15 15 15 15 15 15 15 15 15 15 14 14 14 14 14 14 14 14
16 16 16 16 16 16 15 15 15 15 15 15 15 15 15 15 15 15 15 15 15 16 16 16 15 15 15 14 14 14 14 14 14 14 14 14 14 14 14 14 14 14 14
16 15 15 15 15 15 15 15 15 15 15 15 15 15 15 15 15 15 15 14 15 15 15 15 14 14 14 14 14 14 14 14 14 14 14 14 14 14 14 14 14 14 14
16 15 15 15 15 15 15 15 15 15 15 14 14 14 14 14 14 14 14 14 14 14 14 14 14 14 14 13 13 13 14 14 14 14 14 14 14 14 14 14 14 13 13
15 15 15 15 15 15 15 15 14 14 14 14 14 14 14 14 14 14 14 14 14 14 14 14 14 14 13 13 13 13 13 13 13 13 13 13 13 13 13 13 13 13 13
15 15 15 15 15 15 14 14 14 14 14 14 14 14 14 14 14 14 13 13 13 14 13 13 13 13 13 13 13 13 13 13 13 13 13 13 13 13 13 13 13 13 13
15 15 15 15 14 14 14 14 14 14 14 13 13 13 13 13 13 13 13 13 13 13 13 13 13 13 13 13 12 12 12 12 12 12 12 12 12 12 12 12 12 12 12
15 15 14 14 14 14 14 14 14 13 13 13 13 13 13 13 13 13 13 13 13 13 13 13 13 12 12 12 12 12 12 12 12 12 12 12 12 12 12 12 12 12 12
14 14 14 14 14 14 14 14 13 13 13 13 13 12 12 13 13 13 13 12 12 12 12 12 12 12 12 12 11 11 12 12 12 12 12 12 12 12 12 12 12 12 12
14 14 14 14 14 14 14 13 13 13 13 12 12 12 12 12 12 12 12 12 12 12 12 12 11 11 11 11 11 11 11 11 11 11 11 11 12 12 12 12 12 12 12
14 14 13 13 13 13 13 13 13 12 12 12 12 12 12 12 12 12 12 12 12 11 11 11 11 11 11 11 11 11 11 11 11 11 11 11 11 11 11 11 11 11 11
14 13 13 13 13 13 13 13 13 12 12 12 12 12 12 11 12 12 11 11 11 11 11 11 11 11 11 11 11 11 11 11 11 11 11 11 11 11 11 11 11 11 11
14 13 13 13 13 13 13 13 12 12 12 12 12 12 12 11 11 11 11 11 11 11 11 11 11 11 11 11 11 11 11 11 11 11 11 10 11 10 11 11 11 11 10
Wind_Speed
1 0 1 1 2 1 2 2 2 2 3 4 4 4 5 5 5 5 4 7 8 9 9 10 10 10 10 10 11 12 12 12 12 13 13 14 14 14 14 14 14 14 15
1 1 1 1 1 2 1 2 2 3 3 3 3 4 4 4 5 5 5 6 8 8 8 9 9 10 9 9 9 10 11 11 11 12 13 13 13 14 14 14 14 14 15
1 2 2 2 2 2 2 2 2 2 2 3 3 3 3 4 4 4 4 4 6 8 8 8 8 8 8 8 8 9 9 10 10 11 11 12 12 13 13 14 14 14 14
2 2 2 2 2 2 1 1 2 2 1 2 2 2 3 3 4 4 4 4 3 4 7 7 7 7 7 7 7 8 8 9 10 11 11 12 12 13 13 13 13 13 14
2 2 2 2 2 2 2 2 1 1 1 2 2 2 2 2 3 3 3 3 3 3 3 7 7 6 6 6 6 7 7 7 9 10 11 12 13 13 13 13 13 13 13
2 2 1 2 3 2 1 1 1 1 2 2 2 1 2 2 2 3 3 3 3 3 3 4 6 7 7 6 6 6 6 7 7 8 9 11 12 12 12 12 13 13 13
2 2 2 1 2 2 2 2 2 2 2 1 2 2 3 3 2 2 3 2 3 3 3 3 4 4 6 8 7 7 7 7 7 7 8 9 10 11 12 12 13 14 14
1 1 2 2 2 1 2 2 2 2 2 2 2 2 2 4 4 3 3 3 3 3 3 3 2 3 3 4 6 7 6 6 7 7 7 8 8 9 10 11 12 13 14
1 2 2 2 2 2 1 2 2 3 2 2 2 2 2 2 1 3 2 2 1 2 2 2 3 2 3 3 3 5 6 5 5 6 7 8 8 8 8 9 10 12 13
2 2 2 2 2 2 1 2 1 2 3 3 2 2 2 2 2 1 2 2 2 2 2 2 2 3 3 3 2 3 5 6 6 6 7 7 8 8 8 9 9 10 12
2 2 2 2 2 2 2 2 1 3 3 3 2 2 2 1 3 2 2 1 1 2 2 2 2 2 3 3 3 4 5 5 6 6 6 6 8 8 9 9 8 9 10
1 2 2 2 2 2 2 2 2 2 2 2 2 1 2 2 2 2 3 3 3 2 2 2 3 2 3 3 4 4 5 5 5 6 6 6 7 8 8 9 9 10 10
1 2 2 2 2 2 2 2 1 1 2 2 2 2 2 3 3 3 4 3 3 3 3 3 2 3 3 2 3 4 5 6 5 5 6 6 7 8 8 8 8 8 8
2 2 2 2 2 2 2 1 1 1 1 2 2 2 3 3 3 3 3 3 3 4 3 3 2 2 2 2 1 4 4 6 6 6 5 6 7 8 8 8 8 8 7
2 2 2 2 2 2 1 1 1 1 1 2 2 2 3 2 3 3 3 3 4 4 3 2 2 1 1 1 1 3 3 4 6 6 6 6 7 7 8 8 8 8 8
2 2 2 2 2 1 1 1 1 1 1 1 2 2 3 3 3 3 3 3 4 5 4 2 2 2 2 2 1 2 3 4 7 7 7 7 7 7 7 7 8 8 9
1 1 2 2 2 2 2 2 2 1 2 2 2 2 2 3 2 3 3 3 4 4 4 3 3 2 2 3 2 3 3 4 4 7 7 7 7 7 7 7 7 8 9
1 1 1 2 2 2 2 2 3 2 2 2 2 2 2 2 2 3 3 3 3 3 4 4 4 3 3 3 3 3 3 2 3 5 7 7 7 7 7 7 8 8 8
1 1 1 2 2 2 2 2 2 2 2 3 3 3 3 3 3 3 3 3 3 3 3 4 4 3 3 2 2 3 3 2 3 3 7 8 8 8 8 8 9 8 8
1 1 2 2 1 2 2 2 2 2 3 3 3 3 3 3 3 3 3 3 3 3 3 3 3 3 2 2 2 3 3 2 3 3 2 4 6 9 9 9 9 8 8
0 1 2 2 2 1 2 3 2 2 2 3 3 3 2 3 4 3 3 3 3 3 3 3 3 3 3 3 3 3 3 3 3 3 3 3 4 5 6 9 9 8 8
0 1 0 1 1 2 4 4 4 2 2 3 3 3 2 1 1 1 2 3 3 3 3 3 3 3 4 4 4 4 4 4 4 3 3 4 4 4 3 4 5 8 8
1 0 1 1 1 2 2 2 3 3 2 2 3 3 3 2 2 2 1 2 2 3 4 5 4 5 5 4 5 6 5 6 5 4 4 5 4 3 4 2 8 8 8
1 1 1 1 1 1 1 2 4 3 2 2 2 2 2 3 3 3 3 2 3 3 3 3 4 5 5 5 5 6 6 5 5 4 4 5 4 4 4 3 8 9 8
1 1 1 2 2 1 0 2 5 3 2 2 2 2 2 2 2 3 3 3 3 3 2 2 2 4 5 6 6 5 4 4 4 3 3 4 4 4 4 3 5 9 9
2 2 1 2 2 2 1 1 5 4 3 2 2 2 1 1 1 3 3 3 4 4 4 3 3 4 5 4 5 5 5 5 5 4 2 3 4 3 3 3 3 4 5
Wind_Direction
288 285 269 273 274 256 228 229 229 222 221 218 215 213 226 230 230 227 209 186 204 209 212 216 220 225 222 220 220 217 213 211 208 205 207 208 209 210 209 207 206 205 205
328 298 268 288 290 286 275 253 236 226 223 217 216 212 221 225 222 224 224 191 190 201 214 220 224 226 221 216 215 214 212 208 204 204 206 208 209 208 210 209 209 208 208
334 301 310 293 315 307 273 241 236 239 228 217 216 216 217 219 214 218 221 209 194 191 202 215 222 220 217 215 214 211 207 204 201 200 202 206 209 207 208 207 209 210 209
332 312 318 313 316 298 287 250 239 236 236 241 233 226 215 207 206 208 207 201 206 198 185 191 201 208 209 207 207 209 205 202 203 202 206 210 211 209 209 207 208 211 210
333 316 328 333 310 306 300 280 211 237 235 239 229 209 215 208 201 198 202 208 201 210 199 170 181 190 195 194 198 201 201 197 200 202 206 208 207 207 205 205 205 207 207
335 320 312 332 313 304 298 297 264 233 241 241 246 218 220 197 191 192 203 200 198 212 215 202 192 185 185 188 194 198 198 194 195 198 203 205 205 202 202 201 201 203 205
335 327 322 319 298 300 308 284 254 226 228 224 229 217 201 192 193 206 209 208 205 212 219 223 216 206 187 186 192 202 205 204 201 200 199 199 199 200 202 203 203 205 207
308 304 331 309 311 301 288 275 258 270 252 228 251 244 219 197 202 206 202 206 214 215 218 214 204 207 218 192 173 193 206 209 208 208 203 200 200 203 204 207 208 209 209
327 334 337 331 324 297 305 290 263 252 255 241 244 271 268 264 193 178 190 190 203 214 219 203 192 191 203 175 163 171 189 197 203 208 210 208 205 203 205 204 205 209 211
349 341 341 338 326 329 324 283 277 257 252 249 230 258 292 330 280 220 185 178 187 213 232 230 207 191 205 193 164 144 169 189 206 213 212 214 214 210 209 208 209 210 213
8 355 360 353 338 335 336 324 315 272 253 262 263 255 255 254 270 273 257 263 240 224 217 224 221 215 206 202 192 159 171 192 208 206 206 210 212 212 212 213 213 213 214
10 3 354 345 323 336 332 310 294 259 271 278 284 278 263 265 260 262 262 258 263 270 248 237 232 232 222 214 196 162 193 199 205 207 208 211 213 212 212 216 219 218 218
336 346 340 330 324 323 310 302 275 285 265 257 265 273 271 270 279 270 263 266 270 270 257 249 241 244 239 225 191 174 195 195 203 209 212 212 212 211 212 212 214 216 218
328 339 338 327 319 308 307 304 282 266 251 247 253 266 271 273 277 274 274 280 274 270 253 256 247 252 266 245 180 208 208 193 201 209 213 214 211 211 215 214 215 215 214
331 350 329 325 332 328 325 297 312 282 257 250 252 244 257 265 258 260 268 267 269 276 279 258 271 274 260 242 180 237 230 188 196 208 213 214 210 214 219 219 219 214 212
343 338 334 332 329 325 310 279 270 274 247 255 272 287 279 272 268 258 257 257 261 264 276 298 292 288 311 286 205 253 238 200 205 207 210 209 209 214 217 221 220 213 211
338 336 335 328 322 324 330 315 310 312 289 280 271 270 274 286 278 273 269 266 264 263 266 282 288 289 281 277 267 266 245 234 208 186 197 202 206 211 215 220 220 217 217
332 337 329 324 320 330 330 326 326 328 300 292 291 291 286 277 275 277 286 281 278 272 265 275 281 283 271 268 261 265 255 243 240 172 188 201 207 211 215 217 218 217 219
345 347 346 337 334 342 341 336 336 326 312 314 314 310 305 298 286 290 284 281 285 282 276 269 275 287 283 289 285 273 269 264 253 196 189 197 202 208 214 213 214 214 216
0 0 359 350 353 356 343 333 335 336 330 325 321 319 321 316 306 296 278 281 286 288 275 272 281 287 291 305 296 283 283 279 274 251 221 218 208 208 213 212 211 211 213
20 21 9 358 348 341 343 331 319 330 332 323 321 322 331 352 356 328 314 312 301 287 284 283 284 288 297 311 304 291 281 283 273 261 263 246 227 229 217 209 208 208 208
307 26 10 323 338 355 33 1 321 316 323 320 319 315 303 293 318 251 323 322 314 292 293 290 283 286 292 296 299 287 282 278 279 267 268 267 257 252 243 229 178 180 195
159 112 300 314 329 10 23 336 312 300 300 310 316 316 319 360 347 318 275 228 252 246 251 273 282 287 287 284 282 280 283 281 280 273 270 265 256 255 250 211 159 174 187
177 194 279 300 308 358 18 309 297 265 282 299 306 309 312 331 335 328 316 312 299 287 270 269 283 283 285 289 282 275 276 274 270 260 257 267 262 268 264 231 164 174 187
209 235 261 293 289 307 19 297 296 269 259 274 282 293 291 298 5 316 289 296 301 295 249 223 267 281 287 276 273 271 273 269 271 268 250 263 271 278 270 243 181 178 193
230 248 286 301 299 302 96 283 291 280 284 288 277 256 167 288 326 289 279 288 290 299 306 296 266 251 254 249 243 256 266 266 269 273 264 262 262 270 269 254 232 201 200
Height
1528 1528 1528 1528 1529 1529 1529 1529 1530 1530 1530 1531 1531 1532 1532 1534 1535 1536 1536 1536 1537 1538 1539 1540 1540 1541 1542 1542 1542 1543 1544 1544 1545 1546 1548 1549 1551 1552 1554 1555 1557 1559 1560
1528 1528 1527 1527 1528 1528 1528 1528 1529 1529 1529 1530 1530 1530 1531 1531 1532 1533 1534 1535 1535 1536 1537 1537 1538 1539 1539 1540 1540 1541 1542 1542 1543 1544 1545 1547 1548 1550 1551 1553 1555 1556 1558
1527 1527 1527 1527 1527 1527 1527 1527 1527 1528 1528 1528 1528 1529 1529 1530 1530 1531 1532 1533 1534 1534 1535 1535 1536 1537 1537 1538 1538 1539 1539 1540 1541 1542 1543 1545 1546 1547 1549 1551 1552 1554 1555
1526 1526 1526 1526 1526 1526 1526 1526 1526 1526 1526 1527 1527 1527 1528 1528 1528 1529 1530 1531 1532 1533 1533 1533 1534 1535 1535 1535 1536 1536 1537 1538 1539 1540 1541 1542 1543 1545 1546 1548 1549 1551 1553
1526 1526 1526 1525 1525 1525 1525 1525 1525 1525 1525 1525 1525 1525 1526 1526 1527 1528 1528 1529 1530 1531 1532 1532 1532 1533 1533 1533 1534 1534 1535 1535 1536 1537 1538 1539 1541 1542 1543 1545 1547 1548 1550
1525 1525 1525 1524 1524 1524 1523 1523 1523 1523 1523 1524 1524 1524 1525 1525 1525 1526 1527 1528 1528 1529 1530 1531 1531 1531 1531 1532 1532 1532 1533 1533 1534 1534 1535 1537 1538 1539 1541 1542 1544 1545 1547
1525 1524 1524 1523 1523 1523 1522 1523 1522 1522 1522 1523 1523 1523 1524 1524 1524 1524 1525 1526 1527 1528 1528 1529 1529 1530 1530 1529 1530 1530 1530 1530 1531 1532 1532 1534 1535 1536 1538 1539 1541 1542 1544
1524 1524 1522 1523 1522 1522 1521 1521 1521 1521 1522 1522 1522 1523 1523 1524 1523 1524 1523 1524 1525 1526 1527 1527 1527 1527 1527 1528 1527 1527 1527 1528 1528 1529 1530 1531 1532 1534 1535 1536 1538 1539 1541
1524 1523 1522 1522 1521 1521 1521 1520 1520 1520 1521 1521 1521 1522 1522 1521 1522 1523 1522 1523 1523 1524 1524 1525 1525 1524 1525 1525 1525 1525 1525 1525 1526 1527 1528 1529 1530 1531 1532 1533 1534 1536 1537
1523 1523 1522 1521 1520 1521 1520 1520 1520 1520 1520 1521 1521 1520 1521 1521 1522 1522 1522 1522 1521 1522 1522 1523 1523 1523 1522 1523 1523 1522 1523 1523 1524 1524 1525 1526 1527 1528 1529 1530 1531 1532 1534
1523 1522 1521 1521 1520 1520 1519 1519 1519 1519 1519 1520 1520 1520 1520 1520 1520 1521 1521 1521 1521 1521 1521 1521 1521 1521 1520 1521 1521 1520 1520 1521 1521 1522 1522 1523 1524 1525 1526 1527 1528 1529 1530
1523 1522 1521 1520 1519 1519 1518 1518 1517 1518 1518 1518 1518 1519 1519 1519 1519 1520 1519 1519 1519 1520 1519 1519 1519 1519 1518 1518 1518 1518 1518 1518 1518 1519 1519 1520 1521 1522 1523 1524 1525 1525 1527
1523 1522 1521 1519 1519 1518 1517 1517 1516 1516 1516 1516 1517 1517 1518 1518 1518 1518 1518 1518 1517 1517 1517 1517 1517 1517 1516 1516 1516 1515 1515 1515 1516 1516 1516 1517 1518 1519 1520 1520 1521 1522 1523
1523 1521 1520 1519 1518 1517 1517 1516 1516 1515 1515 1515 1516 1515 1516 1516 1516 1516 1516 1516 1515 1515 1515 1515 1515 1514 1514 1513 1513 1512 1513 1512 1513 1513 1514 1514 1515 1516 1517 1518 1519 1519 1520
1522 1521 1519 1518 1517 1516 1515 1515 1515 1514 1514 1514 1514 1513 1513 1514 1514 1514 1514 1514 1514 1513 1513 1512 1512 1511 1511 1511 1510 1510 1510 1510 1510 1510 1511 1511 1512 1513 1514 1515 1515 1516 1517
1520 1520 1518 1518 1517 1515 1514 1514 1514 1513 1512 1512 1512 1512 1511 1512 1512 1512 1512 1512 1512 1512 1511 1510 1510 1510 1509 1509 1508 1507 1507 1507 1507 1507 1507 1508 1509 1509 1510 1511 1512 1513 1514
1519 1518 1517 1516 1516 1515 1514 1513 1513 1512 1511 1511 1510 1510 1510 1509 1509 1510 1510 1509 1509 1509 1508 1508 1508 1507 1506 1505 1505 1505 1505 1504 1504 1504 1504 1505 1505 1506 1507 1508 1509 1509 1510
1518 1517 1516 1515 1515 1514 1513 1512 1511 1511 1510 1510 1509 1508 1508 1508 1507 1507 1507 1507 1506 1506 1506 1505 1504 1504 1503 1503 1502 1502 1502 1502 1502 1501 1501 1501 1502 1503 1503 1504 1505 1506 1507
1517 1516 1515 1514 1513 1513 1512 1511 1510 1509 1509 1508 1508 1507 1506 1506 1505 1505 1504 1504 1504 1504 1503 1502 1502 1502 1501 1501 1500 1500 1500 1499 1499 1499 1498 1498 1499 1499 1500 1500 1501 1502 1503
1516 1515 1514 1513 1512 1512 1510 1509 1509 1508 1507 1506 1506 1505 1504 1504 1503 1502 1502 1502 1501 1501 1501 1500 1500 1499 1499 1498 1498 1497 1497 1497 1497 1497 1496 1496 1496 1496 1496 1497 1498 1498 1499
1515 1514 1513 1512 1511 1510 1509 1508 1508 1507 1506 1505 1504 1503 1502 1502 1501 1500 1500 1500 1499 1499 1499 1498 1498 1497 1497 1496 1496 1495 1495 1494 1494 1494 1493 1493 1493 1493 1493 1493 1494 1494 1495
1513 1513 1512 1511 1510 1509 1508 1507 1506 1505 1504 1503 1503 1502 1501 1500 1499 1498 1498 1497 1497 1497 1496 1496 1495 1495 1494 1494 1493 1493 1493 1492 1491 1492 1491 1490 1490 1490 1490 1490 1490 1490 1491
1512 1511 1510 1509 1508 1507 1506 1505 1504 1503 1503 1502 1501 1500 1500 1500 1498 1497 1496 1495 1495 1494 1494 1494 1493 1493 1492 1492 1490 1490 1489 1489 1488 1488 1488 1487 1487 1486 1487 1487 1486 1486 1486
1510 1509 1509 1507 1506 1505 1505 1504 1503 1502 1502 1501 1500 1499 1498 1497 1496 1495 1495 1494 1494 1493 1492 1492 1491 1491 1490 1489 1488 1487 1486 1485 1484 1484 1484 1484 1483 1483 1483 1483 1482 1482 1483
1508 1507 1507 1506 1505 1504 1503 1502 1501 1501 1500 1499 1498 1497 1496 1496 1495 1494 1493 1492 1492 1491 1491 1490 1489 1488 1487 1486 1485 1485 1484 1483 1481 1481 1481 1481 1481 1480 1480 1479 1479 1479 1479
1506 1506 1505 1504 1503 1502 1501 1500 1499 1500 1499 1498 1497 1496 1494 1494 1493 1492 1491 1491 1490 1489 1489 1487 1486 1485 1484 1483 1482 1482 1481 1480 1479 1478 1478 1478 1478 1477 1476 1476 1477 1477 1476